TIME,DELAY(SENSOR),PRES,OXYGEN,RAWTEMP,T(OPTODE),TCPHASE,FLUOR,BETA(BETA700),BETA(BETA412),BETA(BETA440),CDOM,C(CSC),ED(ED412.20),ED(ED444.00),ED(ED489.60),ED(ED554.30),LU(LU412.10),LU(LU443.90),LU(LU489.70),LU(LU554.70),COMP,TILTX,TILTY,CHECK
1368591017,5809,888.6699829101562000,31.9028892517089840,559.9990844726562000,4.4859218597412110,56.7788200378418000,55,99,99,77,82,15552,0,0,0,0,2147125220,2147772580,2147569216,2147570925,3567,2,13,15727
1368594613,5810,952.7199707031250000,34.9439582824707000,566.7302246093750000,4.2771258354187010,56.3570709228515600,55,100,101,77,82,15549,0,0,0,0,2147122633,2147775798,2147570112,2147567232,2662,2,13,34253
1368598213,5808,961.5200195312500000,37.5884399414062500,568.5499267578125000,4.2206149101257320,55.9654006958007800,54,100,99,79,82,15551,0,0,0,0,2147122057,2147765302,2147574884,2147566747,351,2,13,9345
1368601813,5811,989.7399902343750000,39.0128707885742200,572.3720092773438000,4.1018261909484860,55.7873611450195300,55,98,101,78,82,15549,0,0,0,0,2147125723,2147773357,2147575378,2147565494,3305,2,13,32278
1368605413,5808,993.0499877929688000,40.3343200683593750,572.3184204101562000,4.1034932136535645,55.5924301147460940,55,99,98,76,83,15549,0,0,0,0,2147122971,2147777490,2147571529,2147569545,537,2,13,20000
1368609013,5811,995.2899780273438000,40.2555313110351560,573.0010986328125000,4.0822620391845700,55.6124496459960940,55,100,100,78,81,15546,0,0,0,0,2147125659,2147773248,2147576457,2147564992,724,2,13,22032
1368612613,5813,995.8099975585938000,39.5152206420898440,573.0565185546875000,4.0805401802062990,55.7229118347168000,55,97,100,78,81,15548,0,0,0,0,2147121152,2147771044,2147574107,2147565330,11,2,13,44544
1368616213,5810,996.5300292968750000,39.1435813903808600,573.1649169921875000,4.0771689414978030,55.7755012512207000,53,99,100,77,81,15546,0,0,0,0,2147121142,2147768000,2147572672,2147566564,135,2,13,55303
1368619813,5808,999.5900268554688000,38.7108001708984400,573.0255126953125000,4.0815029144287110,55.8390502929687500,56,98,100,77,81,15548,0,0,0,0,2147124013,2147767286,2147575360,2147568923,3525,2,13,20892
1368623413,5810,1004.4899902343750000,39.0257797241210940,573.1538696289062000,4.0775089263916020,55.7986412048339840,56,97,99,77,80,15547,0,0,0,0,2147124992,2147770889,2147572900,2147565156,3176,2,13,57838
1368627013,5811,1001.0900268554688000,38.3147087097168000,573.3605957031250000,4.0710811614990230,55.9039802551269500,54,97,100,78,81,15546,0,0,0,0,2147123949,2147776146,2147569024,2147568182,566,2,13,4185
1368630613,5809,1007.4500122070312000,38.3720588684082000,573.0114135742188000,4.0819439888000490,55.8940010070800800,55,99,100,78,81,15547,0,0,0,0,2147125312,2147772717,2147572708,2147563419,343,2,13,49941
1368634213,5809,1007.1699829101562000,36.6882095336914060,572.9959106445312000,4.0824217796325680,56.1488304138183600,54,97,100,78,80,15547,0,0,0,0,2147122322,2147773750,2147571035,2147565129,75,2,13,4107
1368637813,5810,1005.8599853515625000,38.9910011291503900,573.1536865234375000,4.0775151252746580,55.7970581054687500,54,100,98,80,81,15538,0,0,0,0,2147124032,2147773988,2147571501,2147566829,3272,2,13,37270
1368641413,5808,1016.3400268554688000,39.9611816406250000,572.6160888671875000,4.0942339897155760,55.6519508361816400,55,98,101,78,82,15535,0,0,0,0,2147124608,2147772370,2147568064,2147566509,564,3,13,2729
1368645013,5811,1014.1099853515625000,38.2477416992187500,571.6785888671875000,4.1233839988708500,55.8989906311035160,54,98,101,78,81,15537,0,0,0,0,2147120137,2147770788,2147575232,2147565339,3389,2,13,12926
1368648613,5808,1012.4299926757812000,36.9973106384277340,572.4296264648438000,4.1000351905822750,56.0941886901855500,55,99,100,76,82,15521,0,0,0,0,2147124525,2147772900,2147574637,2147567049,40,2,13,61874
1368652213,5808,1002.7199707031250000,39.6428413391113300,573.3876953125000000,4.0702381134033200,55.7018699645996100,55,98,99,80,81,15532,0,0,0,0,2147123958,2147767643,2147575268,2147564772,425,2,13,24870
1368655813,5811,1002.0499877929688000,40.4936294555664060,574.2072753906250000,4.0447411537170410,55.5902900695800800,55,102,99,78,82,15530,0,0,0,0,2147123803,2147777060,2147571602,2147565083,375,2,13,36074
1368659413,5811,1007.7100219726562000,41.4748497009277340,574.3953247070312000,4.0388932228088380,55.4458084106445300,54,98,100,78,82,15533,0,0,0,0,2147123776,2147768813,2147569563,2147565366,3115,3,13,45329
1368663013,5807,1000.3900146484375000,41.4352302551269500,574.3817138671875000,4.0393137931823730,55.4494895935058600,55,100,100,77,81,15530,0,0,0,0,2147122267,2147771346,2147573595,2147565714,631,2,13,45488
1368666613,5809,1010.1599731445312000,42.0601615905761700,574.6564941406250000,4.0307660102844240,55.3591499328613300,54,98,100,78,82,15529,0,0,0,0,2147122852,2147773961,2147579465,2147567762,3366,2,13,54296
1368670213,5809,1011.0200195312500000,40.9778594970703100,573.3809814453125000,4.0704441070556640,55.5079612731933600,54,101,100,77,81,15533,0,0,0,0,2147122523,2147768118,2147573312,2147567579,3422,2,13,51185
1368673813,5812,1018.5900268554688000,41.5300903320312500,573.3587036132812000,4.0711398124694820,55.4226684570312500,54,99,100,78,81,15532,0,0,0,0,2147122907,2147772882,2147572754,2147569024,3403,2,13,18645
1368677413,5811,1008.6199951171875000,39.5291900634765600,573.3419189453125000,4.0716629028320310,55.7209701538085940,54,99,99,78,81,15531,0,0,0,0,2147125549,2147773421,2147576493,2147569344,47,2,13,27845
1368681013,5810,1011.6599731445312000,39.9802818298339840,573.4064941406250000,4.0696530342102050,55.6524314880371100,54,102,100,77,81,15531,0,0,0,0,2147125504,2147766665,2147574253,2147564918,63,3,13,9817
1368684613,5811,1011.0599975585938000,39.5438003540039060,573.6414794921875000,4.0623440742492680,55.7210197448730500,54,96,100,77,81,15526,0,0,0,0,2147123840,2147770230,2147573714,2147566674,76,2,13,8070
1368688213,5808,1011.7299804687500000,40.0796012878418000,573.4588012695312000,4.0680260658264160,55.6431388854980500,55,98,99,78,82,15523,0,0,0,0,2147119597,2147772937,2147574052,2147565412,251,2,13,40579
1368691813,5808,1013.2299804687500000,41.0208282470703100,573.4965209960938000,4.0668540000915530,55.4986114501953100,55,100,100,77,82,15525,0,0,0,0,2147125184,2147771328,2147572370,2147564571,239,2,13,5943
1368695413,5809,1013.6300048828125000,40.6630096435546900,573.3159179687500000,4.0724701881408690,55.5535507202148440,55,98,100,77,81,15526,0,0,0,0,2147125997,2147771090,2147570852,2147568649,393,2,13,14900
1368699013,5810,1013.1599731445312000,40.3185005187988300,574.2675170898438000,4.0428681373596190,55.6141700744628900,56,97,99,78,83,15528,0,0,0,0,2147124589,2147771209,2147567917,2147565760,3171,2,13,9642
1368702613,5811,1011.8699951171875000,40.9918518066406250,573.5133056640625000,4.0663299560546875,55.5033302307128900,54,97,99,79,83,15525,0,0,0,0,2147124123,2147767104,2147572461,2147567844,346,2,13,42878
1368706213,5809,1005.3400268554688000,38.8818206787109400,574.4547729492188000,4.0370430946350100,55.8335914611816400,55,98,102,78,81,15526,0,0,0,0,2147126116,2147773421,2147574848,2147565028,43,3,13,34901
1368709813,5808,1011.2399902343750000,40.4149398803710940,574.2932128906250000,4.0420680046081540,55.5973091125488300,55,95,100,78,82,15524,0,0,0,0,2147123373,2147770898,2147573138,2147567524,3283,3,13,59140
1368713413,5810,1015.7999877929688000,38.9458198547363300,574.2426147460938000,4.0436439514160160,55.8211402893066400,54,98,99,77,81,15525,0,0,0,0,2147124150,2147768338,2147571492,2147566912,3155,2,13,57008
1368717013,5810,1014.1099853515625000,40.0895996093750000,573.4766845703125000,4.0674691200256350,55.6428298950195300,55,98,100,77,81,15523,0,0,0,0,2147127616,2147772534,2147571227,2147564836,199,2,13,28596
1368720613,5810,1022.1400146484375000,37.0039901733398440,573.2498779296875000,4.0745220184326170,56.1055793762207000,55,99,100,78,82,15524,0,0,0,0,2147122048,2147772653,2147574308,2147568100,229,2,13,20255
1368724213,5810,1016.6300048828125000,37.0939788818359400,572.6182861328125000,4.0941658020019530,56.0803909301757800,54,98,99,77,81,15525,0,0,0,0,2147127570,2147765897,2147569837,2147566107,36,3,13,24473
1368727813,5809,1014.9799804687500000,37.5122413635253900,573.0438842773438000,4.0809311866760250,56.0260810852050800,55,98,99,78,82,15524,0,0,0,0,2147125869,2147773330,2147573851,2147565796,285,2,13,55037
1368731413,5811,1014.0100097656250000,38.0101814270019500,573.1497192382812000,4.0776391029357910,55.9454116821289060,53,99,99,78,83,15525,0,0,0,0,2147123026,2147766985,2147576000,2147565330,104,2,13,30949
1368734456,5809,1013.1400146484375000,38.1429901123046900,573.4763183593750000,4.0674839019775390,55.9301185607910160,55,97,100,79,82,15524,0,0,0,0,2147123922,2147771456,2147574354,2147567707,488,2,13,52614
